| time (UTC) | temp F | wind direction | speed knots | gust knots | rain 1hr in | rain 24hr in | rain mn in | humidity % | barometer mb |
| 20260507200117 | 84 | 12 | 1.7 | 3.5 | 0.00 | 0.00 | 0.00 | 63 | 1014.2 |
| 20260507195614 | 84 | 157 | 2.6 | 2.6 | 0.00 | 0.00 | 0.00 | 63 | 1014.4 |
| 20260507195111 | 84 | 353 | 2.6 | 4.3 | 0.00 | 0.00 | 0.00 | 63 | 1014.4 |
| 20260507194608 | 85 | 48 | 1.7 | 8.7 | 0.00 | 0.00 | 0.00 | 62 | 1014.5 |
| 20260507194103 | 85 | 147 | 2.6 | 3.5 | 0.00 | 0.00 | 0.00 | 62 | 1014.4 |
| 20260507193601 | 85 | 188 | 2.6 | 4.3 | 0.00 | 0.00 | 0.00 | 62 | 1014.1 |
| 20260507193058 | 85 | 163 | 0.0 | 4.3 | 0.00 | 0.00 | 0.00 | 61 | 1014.6 |
| 20260507192554 | 84 | 127 | 2.6 | 4.3 | 0.00 | 0.00 | 0.00 | 62 | 1014.3 |
| 20260507192051 | 85 | 199 | 2.6 | 6.1 | 0.00 | 0.00 | 0.00 | 62 | 1014.7 |
| 20260507191546 | 85 | 227 | 2.6 | 6.1 | 0.00 | 0.00 | 0.00 | 62 | 1014.6 |
| 20260507191044 | 85 | 313 | 2.6 | 6.1 | 0.00 | 0.00 | 0.00 | 62 | 1014.8 |
| 20260507190541 | 85 | 0 | 1.7 | 5.2 | 0.00 | 0.00 | 0.00 | 63 | 1014.8 |
| 20260507190039 | 85 | 346 | 4.3 | 6.1 | 0.00 | 0.00 | 0.00 | 63 | 1015.2 |
| 20260507185537 | 85 | 347 | 2.6 | 7.8 | 0.00 | 0.00 | 0.00 | 63 | 1015.5 |
| 20260507185033 | 85 | 341 | 5.2 | 5.2 | 0.00 | 0.00 | 0.00 | 63 | 1015.6 |
| 20260507184532 | 84 | 333 | 3.5 | 5.2 | 0.00 | 0.00 | 0.00 | 66 | 1015.7 |
| 20260507184030 | 84 | 278 | 2.6 | 5.2 | 0.00 | 0.00 | 0.00 | 66 | 1015.9 |
| 20260507183525 | 84 | 5 | 2.6 | 7.8 | 0.00 | 0.00 | 0.00 | 64 | 1015.9 |
| 20260507183023 | 85 | 0 | 3.5 | 5.2 | 0.00 | 0.00 | 0.00 | 63 | 1015.9 |
| 20260507182519 | 84 | 351 | 3.5 | 12.2 | 0.00 | 0.00 | 0.00 | 64 | 1016.0 |
| 20260507182015 | 84 | 10 | 2.6 | 5.2 | 0.00 | 0.00 | 0.00 | 65 | 1016.1 |
| 20260507181512 | 85 | 12 | 10.4 | 10.4 | 0.00 | 0.00 | 0.00 | 64 | 1016.2 |
| 20260507181008 | 85 | 283 | 1.7 | 6.1 | 0.00 | 0.00 | 0.00 | 65 | 1016.0 |
| 20260507180504 | 84 | 33 | 4.3 | 7.8 | 0.00 | 0.00 | 0.00 | 65 | 1016.2 |
| 20260507180001 | 84 | 16 | 2.6 | 7.0 | 0.00 | 0.00 | 0.00 | 65 | 1016.3 |
| 20260507175457 | 84 | 5 | 1.7 | 4.3 | 0.00 | 0.00 | 0.00 | 65 | 1016.3 |
| 20260507174955 | 82 | 345 | 3.5 | 7.0 | 0.00 | 0.00 | 0.00 | 66 | 1016.2 |
| 20260507174452 | 83 | 19 | 4.3 | 4.3 | 0.00 | 0.00 | 0.00 | 66 | 1016.6 |
| 20260507173950 | 82 | 345 | 3.5 | 4.3 | 0.00 | 0.00 | 0.00 | 66 | 1016.5 |
| 20260507173447 | 82 | 328 | 4.3 | 6.1 | 0.00 | 0.00 | 0.00 | 66 | 1016.9 |
| 20260507172943 | 82 | 319 | 1.7 | 5.2 | 0.00 | 0.00 | 0.00 | 67 | 1016.7 |
| 20260507172440 | 83 | 4 | 5.2 | 7.8 | 0.00 | 0.00 | 0.00 | 65 | 1016.7 |
| 20260507171937 | 84 | 19 | 2.6 | 7.0 | 0.00 | 0.00 | 0.00 | 64 | 1016.8 |
| 20260507171432 | 85 | 4 | 1.7 | 4.3 | 0.00 | 0.00 | 0.00 | 61 | 1016.4 |
| 20260507170930 | 85 | 0 | 0.9 | 6.1 | 0.00 | 0.00 | 0.00 | 59 | 1016.6 |
| 20260507170426 | 86 | 334 | 2.6 | 6.1 | 0.00 | 0.00 | 0.00 | 57 | 1016.5 |
| 20260507165923 | 86 | 36 | 2.6 | 4.3 | 0.00 | 0.00 | 0.00 | 54 | 1016.5 |
| 20260507165419 | 85 | 10 | 4.3 | 7.8 | 0.00 | 0.00 | 0.00 | 55 | 1016.7 |
| 20260507164914 | 86 | 326 | 5.2 | 7.8 | 0.00 | 0.00 | 0.00 | 54 | 1016.7 |
| 20260507164412 | 86 | 6 | 2.6 | 7.0 | 0.00 | 0.00 | 0.00 | 53 | 1016.8 |
| 20260507163909 | 86 | 36 | 4.3 | 5.2 | 0.00 | 0.00 | 0.00 | 54 | 1016.7 |
| 20260507163406 | 85 | 7 | 4.3 | 6.1 | 0.00 | 0.00 | 0.00 | 54 | 1016.5 |
| 20260507162903 | 85 | 0 | 2.6 | 5.2 | 0.00 | 0.00 | 0.00 | 54 | 1016.7 |
| 20260507162358 | 85 | 4 | 5.2 | 7.0 | 0.00 | 0.00 | 0.00 | 54 | 1017.1 |
| 20260507161856 | 85 | 340 | 2.6 | 7.0 | 0.00 | 0.00 | 0.00 | 54 | 1016.7 |
| 20260507161352 | 85 | 356 | 1.7 | 9.6 | 0.00 | 0.00 | 0.00 | 55 | 1017.1 |
| 20260507160849 | 85 | 56 | 1.7 | 8.7 | 0.00 | 0.00 | 0.00 | 55 | 1017.1 |
| 20260507160344 | 86 | 9 | 6.1 | 8.7 | 0.00 | 0.00 | 0.00 | 55 | 1017.0 |
| 20260507155841 | 85 | 63 | 0.0 | 7.8 | 0.00 | 0.00 | 0.00 | 56 | 1016.9 |
| 20260507155336 | 85 | 287 | 6.1 | 6.1 | 0.00 | 0.00 | 0.00 | 58 | 1016.9 |
| 20260507154833 | 84 | 358 | 3.5 | 4.3 | 0.00 | 0.00 | 0.00 | 59 | 1017.2 |
| 20260507154331 | 84 | 5 | 1.7 | 7.0 | 0.00 | 0.00 | 0.00 | 60 | 1017.3 |
| 20260507153828 | 84 | 7 | 0.0 | 6.1 | 0.00 | 0.00 | 0.00 | 63 | 1017.3 |
| 20260507153324 | 82 | 308 | 5.2 | 6.1 | 0.00 | 0.00 | 0.00 | 64 | 1017.6 |
| 20260507152821 | 83 | 50 | 2.6 | 7.0 | 0.00 | 0.00 | 0.00 | 64 | 1017.4 |
| 20260507152317 | 82 | 356 | 1.7 | 5.2 | 0.00 | 0.00 | 0.00 | 65 | 1017.2 |
| 20260507151813 | 82 | 258 | 2.6 | 4.3 | 0.00 | 0.00 | 0.00 | 67 | 1017.2 |
| 20260507151309 | 82 | 174 | 2.6 | 2.6 | 0.00 | 0.00 | 0.00 | 68 | 1016.6 |
| 20260507150806 | 82 | 174 | 0.0 | 1.7 | 0.00 | 0.00 | 0.00 | 68 | 1016.8 |
| 20260507150303 | 82 | 180 | 2.6 | 2.6 | 0.00 | 0.00 | 0.00 | 68 | 1016.7 |
| 20260507145759 | 81 | 4 | 1.7 | 2.6 | 0.00 | 0.00 | 0.00 | 68 | 1016.6 |
| 20260507145256 | 81 | 0 | 0.9 | 2.6 | 0.00 | 0.00 | 0.00 | 69 | 1016.5 |
| 20260507144753 | 80 | 40 | 0.0 | 4.3 | 0.00 | 0.00 | 0.00 | 70 | 1016.3 |
| 20260507144250 | 80 | 144 | 2.6 | 2.6 | 0.00 | 0.00 | 0.00 | 70 | 1016.2 |
| 20260507143746 | 79 | 180 | 0.0 | 1.7 | 0.00 | 0.00 | 0.00 | 72 | 1016.3 |
| 20260507143244 | 79 | 171 | 0.0 | 2.6 | 0.00 | 0.00 | 0.00 | 72 | 1016.1 |
| 20260507142740 | 79 | 75 | 0.0 | 2.6 | 0.00 | 0.00 | 0.00 | 72 | 1016.0 |
| 20260507142237 | 79 | 90 | 0.0 | 2.6 | 0.00 | 0.00 | 0.00 | 73 | 1016.0 |
| 20260507141733 | 78 | 170 | 0.0 | 3.5 | 0.00 | 0.00 | 0.00 | 73 | 1016.1 |
| 20260507141230 | 78 | 90 | 0.0 | 2.6 | 0.00 | 0.00 | 0.00 | 73 | 1016.3 |
| 20260507140726 | 78 | 118 | 3.5 | 3.5 | 0.00 | 0.00 | 0.00 | 74 | 1016.4 |
| 20260507140224 | 77 | 183 | 2.6 | 2.6 | 0.00 | 0.00 | 0.00 | 75 | 1016.5 |
| 20260507135721 | 77 | 176 | 0.0 | 3.5 | 0.00 | 0.00 | 0.00 | 75 | 1016.3 |
| 20260507135218 | 78 | 200 | 2.6 | 2.6 | 0.00 | 0.00 | 0.00 | 76 | 1016.3 |
| 20260507134714 | 77 | 0 | 1.7 | 3.5 | 0.00 | 0.00 | 0.00 | 76 | 1016.3 |
| 20260507134211 | 77 | 286 | 0.9 | 2.6 | 0.00 | 0.00 | 0.00 | 77 | 1016.4 |
| 20260507133707 | 77 | 172 | 0.0 | 2.6 | 0.00 | 0.00 | 0.00 | 77 | 1016.4 |
| 20260507133204 | 76 | 23 | 0.0 | 3.5 | 0.00 | 0.00 | 0.00 | 78 | 1016.6 |
| 20260507132701 | 76 | 29 | 0.0 | 1.7 | 0.00 | 0.00 | 0.00 | 78 | 1016.5 |
| 20260507132157 | 75 | 135 | 2.6 | 2.6 | 0.00 | 0.00 | 0.00 | 79 | 1016.5 |
| 20260507131654 | 75 | 281 | 0.0 | 1.7 | 0.00 | 0.00 | 0.00 | 79 | 1016.4 |
| 20260507131152 | 75 | 294 | 0.0 | 1.7 | 0.00 | 0.00 | 0.00 | 80 | 1016.5 |
| 20260507130648 | 75 | 106 | 0.0 | 0.9 | 0.00 | 0.00 | 0.00 | 80 | 1016.3 |
| 20260507130146 | 74 | 81 | 0.0 | 1.7 | 0.00 | 0.00 | 0.00 | 80 | 1016.5 |
| 20260507125644 | 74 | 180 | 0.0 | 1.7 | 0.00 | 0.00 | 0.00 | 80 | 1016.5 |
| 20260507125142 | 74 | 257 | 0.9 | 1.7 | 0.00 | 0.00 | 0.00 | 80 | 1016.8 |
| 20260507124638 | 74 | 75 | 0.0 | 0.9 | 0.00 | 0.00 | 0.00 | 81 | 1016.7 |
| 20260507124136 | 73 | 292 | 1.7 | 1.7 | 0.00 | 0.00 | 0.00 | 81 | 1016.7 |
| 20260507123634 | 73 | 306 | 0.9 | 4.3 | 0.00 | 0.00 | 0.00 | 80 | 1016.8 |
| 20260507123131 | 74 | 82 | 0.9 | 2.6 | 0.00 | 0.00 | 0.00 | 81 | 1016.9 |
| 20260507122626 | 74 | 283 | 0.0 | 2.6 | 0.00 | 0.00 | 0.00 | 81 | 1016.7 |
| 20260507122122 | 73 | 325 | 0.0 | 2.6 | 0.00 | 0.00 | 0.00 | 81 | 1016.7 |
| 20260507121618 | 73 | 279 | 0.0 | 2.6 | 0.00 | 0.00 | 0.00 | 82 | 1016.6 |
| 20260507121114 | 74 | 84 | 0.0 | 2.6 | 0.00 | 0.00 | 0.00 | 82 | 1016.6 |
| 20260507120610 | 74 | 345 | 0.9 | 1.7 | 0.00 | 0.00 | 0.00 | 83 | 1016.5 |
| 20260507120107 | 73 | 285 | 0.0 | 1.7 | 0.00 | 0.00 | 0.00 | 83 | 1016.6 |
| 20260507115603 | 73 | 289 | 0.9 | 1.7 | 0.00 | 0.00 | 0.00 | 83 | 1016.2 |
| 20260507115059 | 73 | 255 | 0.0 | 0.0 | 0.00 | 0.00 | 0.00 | 83 | 1016.0 |
| 20260507114555 | 73 | 254 | 0.0 | 1.7 | 0.00 | 0.00 | 0.00 | 83 | 1016.1 |
| 20260507114053 | 73 | 286 | 0.0 | 3.5 | 0.00 | 0.00 | 0.00 | 83 | 1016.1 |
| 20260507113549 | 73 | 243 | 0.0 | 0.0 | 0.00 | 0.00 | 0.00 | 84 | 1015.9 |
| 20260507113047 | 72 | 234 | 0.0 | 2.6 | 0.00 | 0.00 | 0.00 | 83 | 1015.7 |
| 20260507112545 | 72 | 194 | 0.0 | 1.7 | 0.00 | 0.00 | 0.00 | 83 | 1015.9 |
| 20260507112041 | 72 | 110 | 0.0 | 2.6 | 0.00 | 0.00 | 0.00 | 83 | 1015.9 |
| 20260507111538 | 72 | 263 | 0.0 | 1.7 | 0.00 | 0.00 | 0.00 | 83 | 1016.0 |
| 20260507111035 | 72 | 294 | 0.0 | 1.7 | 0.00 | 0.00 | 0.00 | 83 | 1015.9 |
| 20260507110531 | 72 | 106 | 0.0 | 3.5 | 0.00 | 0.00 | 0.00 | 83 | 1016.1 |
| 20260507110028 | 72 | 180 | 0.0 | 0.9 | 0.00 | 0.00 | 0.00 | 83 | 1015.6 |
| 20260507105525 | 72 | 180 | 0.0 | 2.6 | 0.00 | 0.00 | 0.00 | 84 | 1016.0 |
| 20260507105020 | 72 | 175 | 1.7 | 1.7 | 0.00 | 0.00 | 0.00 | 84 | 1015.9 |
| 20260507104518 | 71 | 180 | 0.0 | 1.7 | 0.00 | 0.00 | 0.00 | 84 | 1015.9 |
| 20260507104015 | 71 | 173 | 0.0 | 0.0 | 0.00 | 0.00 | 0.00 | 84 | 1015.7 |
| 20260507103511 | 71 | 180 | 0.0 | 0.0 | 0.00 | 0.00 | 0.00 | 84 | 1015.8 |
| 20260507103007 | 71 | 180 | 0.0 | 0.0 | 0.00 | 0.00 | 0.00 | 84 | 1015.8 |
| 20260507102504 | 71 | 180 | 0.0 | 0.0 | 0.00 | 0.00 | 0.00 | 84 | 1016.0 |
| 20260507102000 | 71 | 180 | 0.0 | 0.9 | 0.00 | 0.00 | 0.00 | 84 | 1015.9 |
| 20260507101455 | 72 | 180 | 0.0 | 0.0 | 0.00 | 0.00 | 0.00 | 84 | 1015.9 |
| 20260507100952 | 72 | 180 | 0.0 | 0.0 | 0.00 | 0.00 | 0.00 | 84 | 1016.0 |
| 20260507100450 | 72 | 180 | 0.0 | 0.0 | 0.00 | 0.00 | 0.00 | 84 | 1015.8 |
| 20260507095948 | 73 | 172 | 0.0 | 0.9 | 0.00 | 0.00 | 0.00 | 84 | 1015.8 |
| 20260507095445 | 73 | 255 | 0.0 | 1.7 | 0.00 | 0.00 | 0.00 | 84 | 1015.8 |
| 20260507094942 | 73 | 246 | 0.0 | 1.7 | 0.00 | 0.00 | 0.00 | 83 | 1015.9 |
| 20260507094438 | 73 | 285 | 0.0 | 0.9 | 0.00 | 0.00 | 0.00 | 83 | 1015.8 |
| 20260507093935 | 73 | 270 | 0.0 | 0.0 | 0.00 | 0.00 | 0.00 | 83 | 1015.7 |
| 20260507093433 | 73 | 270 | 0.0 | 0.9 | 0.00 | 0.00 | 0.00 | 83 | 1015.7 |
| 20260507092931 | 73 | 194 | 0.9 | 1.7 | 0.00 | 0.00 | 0.00 | 83 | 1015.7 |
| 20260507092427 | 72 | 99 | 0.0 | 0.0 | 0.00 | 0.00 | 0.00 | 82 | 1015.7 |
| 20260507091924 | 72 | 180 | 0.0 | 0.0 | 0.00 | 0.00 | 0.00 | 82 | 1015.4 |
| 20260507091420 | 73 | 172 | 0.0 | 1.7 | 0.00 | 0.00 | 0.00 | 82 | 1015.7 |
| 20260507090916 | 72 | 215 | 0.0 | 0.0 | 0.00 | 0.00 | 0.00 | 81 | 1015.4 |
| 20260507090412 | 73 | 180 | 0.0 | 0.9 | 0.00 | 0.00 | 0.00 | 81 | 1015.4 |
| 20260507085909 | 73 | 198 | 0.0 | 2.6 | 0.00 | 0.00 | 0.00 | 81 | 1015.3 |
| 20260507085406 | 73 | 180 | 0.0 | 1.7 | 0.00 | 0.00 | 0.00 | 81 | 1015.3 |
| 20260507084903 | 73 | 98 | 0.0 | 3.5 | 0.00 | 0.00 | 0.00 | 80 | 1014.9 |
| 20260507084400 | 73 | 195 | 0.0 | 2.6 | 0.00 | 0.00 | 0.00 | 80 | 1014.9 |
| 20260507083857 | 73 | 81 | 0.0 | 1.7 | 0.00 | 0.00 | 0.00 | 80 | 1014.8 |
| 20260507083353 | 73 | 180 | 0.0 | 2.6 | 0.00 | 0.00 | 0.00 | 80 | 1014.6 |
| 20260507082850 | 73 | 166 | 0.0 | 2.6 | 0.00 | 0.00 | 0.00 | 79 | 1014.5 |
| 20260507082345 | 73 | 109 | 0.9 | 1.7 | 0.00 | 0.00 | 0.00 | 80 | 1014.6 |
| 20260507081843 | 73 | 166 | 0.0 | 1.7 | 0.00 | 0.00 | 0.00 | 80 | 1014.6 |
| 20260507081339 | 73 | 98 | 0.0 | 1.7 | 0.00 | 0.00 | 0.00 | 79 | 1014.6 |
| 20260507080836 | 73 | 240 | 0.0 | 1.7 | 0.00 | 0.00 | 0.00 | 79 | 1014.6 |
| 20260507080332 | 73 | 188 | 0.0 | 2.6 | 0.00 | 0.00 | 0.00 | 79 | 1014.5 |
| 20260507075828 | 73 | 111 | 0.0 | 1.7 | 0.00 | 0.00 | 0.00 | 79 | 1014.7 |
| 20260507075324 | 73 | 107 | 1.7 | 1.7 | 0.00 | 0.00 | 0.00 | 78 | 1014.7 |
| 20260507074820 | 73 | 109 | 0.9 | 2.6 | 0.00 | 0.00 | 0.00 | 78 | 1014.6 |
| 20260507074318 | 73 | 120 | 1.7 | 3.5 | 0.00 | 0.00 | 0.00 | 78 | 1014.8 |
| 20260507073815 | 73 | 120 | 0.9 | 1.7 | 0.00 | 0.00 | 0.00 | 78 | 1014.8 |
| 20260507073311 | 73 | 157 | 0.0 | 0.9 | 0.00 | 0.00 | 0.00 | 78 | 1015.0 |
| 20260507072809 | 73 | 90 | 0.0 | 1.7 | 0.00 | 0.00 | 0.00 | 77 | 1015.0 |
| 20260507072308 | 73 | 114 | 0.0 | 1.7 | 0.00 | 0.00 | 0.00 | 77 | 1015.0 |
| 20260507071803 | 73 | 103 | 0.0 | 2.6 | 0.00 | 0.00 | 0.00 | 77 | 1015.0 |
| 20260507071300 | 73 | 126 | 0.9 | 1.7 | 0.00 | 0.00 | 0.00 | 77 | 1015.3 |
| 20260507070756 | 73 | 90 | 0.0 | 0.0 | 0.00 | 0.00 | 0.00 | 77 | 1015.3 |
| 20260507070254 | 74 | 90 | 0.0 | 0.0 | 0.00 | 0.00 | 0.00 | 76 | 1015.4 |
| 20260507065750 | 74 | 166 | 0.0 | 1.7 | 0.00 | 0.00 | 0.00 | 76 | 1015.4 |
| 20260507065247 | 74 | 123 | 0.0 | 1.7 | 0.00 | 0.00 | 0.00 | 76 | 1015.4 |
| 20260507064744 | 74 | 170 | 0.0 | 2.6 | 0.00 | 0.00 | 0.00 | 76 | 1015.6 |
| 20260507064243 | 74 | 95 | 0.0 | 1.7 | 0.00 | 0.00 | 0.00 | 75 | 1015.5 |
| 20260507063740 | 74 | 103 | 0.9 | 1.7 | 0.00 | 0.00 | 0.00 | 75 | 1015.5 |
| 20260507063237 | 74 | 151 | 0.0 | 1.7 | 0.00 | 0.00 | 0.00 | 75 | 1015.8 |
| 20260507062734 | 74 | 105 | 0.9 | 2.6 | 0.00 | 0.00 | 0.00 | 75 | 1015.9 |
| 20260507062231 | 74 | 145 | 0.9 | 1.7 | 0.00 | 0.00 | 0.00 | 74 | 1016.0 |
| 20260507061730 | 74 | 139 | 0.0 | 2.6 | 0.00 | 0.00 | 0.00 | 74 | 1016.0 |
| 20260507061227 | 75 | 90 | 0.0 | 0.9 | 0.00 | 0.00 | 0.00 | 74 | 1016.2 |
| 20260507060725 | 75 | 82 | 0.0 | 0.9 | 0.00 | 0.00 | 0.00 | 74 | 1016.2 |
| 20260507060221 | 74 | 66 | 0.0 | 0.9 | 0.00 | 0.00 | 0.00 | 74 | 1016.4 |
| 20260507055717 | 75 | 99 | 0.0 | 1.7 | 0.00 | 0.00 | 0.00 | 74 | 1016.5 |
| 20260507055213 | 75 | 107 | 0.0 | 1.7 | 0.00 | 0.00 | 0.00 | 74 | 1016.3 |
| 20260507054709 | 75 | 165 | 0.0 | 1.7 | 0.00 | 0.00 | 0.00 | 74 | 1016.6 |
| 20260507054206 | 75 | 117 | 0.0 | 0.0 | 0.00 | 0.00 | 0.00 | 74 | 1016.6 |
| 20260507053704 | 75 | 84 | 0.0 | 1.7 | 0.00 | 0.00 | 0.00 | 74 | 1016.7 |
| 20260507053202 | 75 | 90 | 0.0 | 0.9 | 0.00 | 0.00 | 0.00 | 73 | 1016.7 |
| 20260507052700 | 75 | 157 | 0.0 | 2.6 | 0.00 | 0.00 | 0.00 | 73 | 1016.8 |
| 20260507052156 | 75 | 107 | 1.7 | 2.6 | 0.00 | 0.00 | 0.00 | 73 | 1016.8 |
| 20260507051654 | 75 | 180 | 0.0 | 0.0 | 0.00 | 0.00 | 0.00 | 73 | 1016.6 |
| 20260507051150 | 75 | 246 | 0.0 | 0.9 | 0.00 | 0.00 | 0.00 | 73 | 1016.9 |
| 20260507050647 | 75 | 145 | 0.0 | 1.7 | 0.00 | 0.00 | 0.00 | 73 | 1016.8 |
| 20260507050144 | 75 | 99 | 0.0 | 0.0 | 0.00 | 0.00 | 0.00 | 73 | 1016.9 |
| 20260507045641 | 75 | 123 | 1.7 | 1.7 | 0.00 | 0.00 | 0.00 | 73 | 1016.8 |
| 20260507045137 | 75 | 132 | 1.7 | 1.7 | 0.00 | 0.00 | 0.00 | 72 | 1016.5 |
| 20260507044634 | 76 | 90 | 0.0 | 1.7 | 0.00 | 0.00 | 0.00 | 72 | 1016.4 |
| 20260507044131 | 75 | 180 | 0.0 | 3.5 | 0.00 | 0.00 | 0.00 | 72 | 1016.8 |
| 20260507043627 | 76 | 139 | 1.7 | 3.5 | 0.00 | 0.00 | 0.00 | 72 | 1016.4 |
| 20260507043124 | 76 | 117 | 0.0 | 2.6 | 0.00 | 0.00 | 0.00 | 72 | 1016.9 |
| 20260507042620 | 76 | 109 | 0.0 | 1.7 | 0.00 | 0.00 | 0.00 | 72 | 1016.9 |
| 20260507042115 | 76 | 106 | 0.9 | 1.7 | 0.00 | 0.00 | 0.00 | 72 | 1017.0 |
| 20260507041613 | 76 | 148 | 1.7 | 4.3 | 0.00 | 0.00 | 0.00 | 71 | 1017.0 |
| 20260507041110 | 76 | 147 | 1.7 | 2.6 | 0.00 | 0.00 | 0.00 | 71 | 1017.0 |
| 20260507040607 | 75 | 123 | 0.0 | 1.7 | 0.00 | 0.00 | 0.00 | 71 | 1017.0 |
| 20260507035559 | 75 | 111 | 0.0 | 1.7 | 0.00 | 0.00 | 0.00 | 71 | 1017.0 |
| 20260507035055 | 76 | 96 | 0.0 | 2.6 | 0.00 | 0.00 | 0.00 | 71 | 1017.2 |
| 20260507034552 | 76 | 126 | 0.0 | 1.7 | 0.00 | 0.00 | 0.00 | 71 | 1017.1 |
| 20260507034050 | 76 | 135 | 1.7 | 1.7 | 0.00 | 0.00 | 0.00 | 70 | 1017.1 |
| 20260507033548 | 76 | 107 | 1.7 | 1.7 | 0.00 | 0.00 | 0.00 | 70 | 1017.1 |
| 20260507033044 | 76 | 151 | 0.9 | 1.7 | 0.00 | 0.00 | 0.00 | 71 | 1017.0 |
| 20260507032541 | 76 | 157 | 0.0 | 1.7 | 0.00 | 0.00 | 0.00 | 70 | 1016.8 |
| 20260507032038 | 76 | 84 | 0.0 | 1.7 | 0.00 | 0.00 | 0.00 | 70 | 1017.1 |
| 20260507031534 | 76 | 114 | 0.0 | 0.9 | 0.00 | 0.00 | 0.00 | 70 | 1017.0 |
| 20260507031032 | 76 | 151 | 0.9 | 1.7 | 0.00 | 0.00 | 0.00 | 69 | 1017.0 |
| 20260507030528 | 77 | 115 | 0.0 | 1.7 | 0.00 | 0.00 | 0.00 | 69 | 1017.3 |
| 20260507030026 | 77 | 109 | 0.0 | 2.6 | 0.00 | 0.00 | 0.00 | 69 | 1016.8 |
| 20260507025523 | 77 | 120 | 0.0 | 1.7 | 0.00 | 0.00 | 0.00 | 68 | 1016.9 |
| 20260507025020 | 77 | 112 | 1.7 | 2.6 | 0.00 | 0.00 | 0.00 | 68 | 1016.9 |
| 20260507024518 | 77 | 180 | 0.0 | 3.5 | 0.00 | 0.00 | 0.00 | 68 | 1016.8 |
| 20260507024014 | 78 | 101 | 2.6 | 2.6 | 0.00 | 0.00 | 0.00 | 68 | 1017.0 |
| 20260507023510 | 78 | 121 | 0.0 | 1.7 | 0.00 | 0.00 | 0.00 | 68 | 1017.2 |
| 20260507023008 | 78 | 107 | 1.7 | 3.5 | 0.00 | 0.00 | 0.00 | 68 | 1017.0 |
| 20260507022505 | 78 | 111 | 0.9 | 2.6 | 0.00 | 0.00 | 0.00 | 68 | 1016.8 |
| 20260507022000 | 78 | 160 | 0.0 | 4.3 | 0.00 | 0.00 | 0.00 | 68 | 1016.7 |
| 20260507021456 | 78 | 102 | 0.0 | 1.7 | 0.00 | 0.00 | 0.00 | 68 | 1016.9 |
| 20260507020953 | 78 | 239 | 0.0 | 2.6 | 0.00 | 0.00 | 0.00 | 68 | 1016.9 |
| 20260507020450 | 78 | 97 | 0.9 | 3.5 | 0.00 | 0.00 | 0.00 | 69 | 1016.8 |
| 20260507015947 | 78 | 132 | 1.7 | 2.6 | 0.00 | 0.00 | 0.00 | 69 | 1017.0 |
| 20260507015445 | 78 | 90 | 0.9 | 2.6 | 0.00 | 0.00 | 0.00 | 69 | 1016.9 |
| 20260507014942 | 78 | 106 | 1.7 | 2.6 | 0.00 | 0.00 | 0.00 | 69 | 1016.9 |
| 20260507014439 | 78 | 111 | 0.0 | 1.7 | 0.00 | 0.00 | 0.00 | 69 | 1016.6 |
| 20260507013935 | 78 | 140 | 1.7 | 2.6 | 0.00 | 0.00 | 0.00 | 69 | 1016.8 |
| 20260507013432 | 78 | 131 | 1.7 | 3.5 | 0.00 | 0.00 | 0.00 | 69 | 1016.7 |
| 20260507012929 | 78 | 99 | 0.0 | 1.7 | 0.00 | 0.00 | 0.00 | 69 | 1016.7 |
| 20260507012426 | 78 | 263 | 2.6 | 3.5 | 0.00 | 0.00 | 0.00 | 69 | 1016.6 |
| 20260507011922 | 78 | 90 | 0.0 | 0.9 | 0.00 | 0.00 | 0.00 | 70 | 1016.7 |
| 20260507011420 | 78 | 128 | 0.0 | 3.5 | 0.00 | 0.00 | 0.00 | 69 | 1016.7 |
| 20260507010919 | 78 | 289 | 0.0 | 2.6 | 0.00 | 0.00 | 0.00 | 69 | 1016.6 |
| 20260507010415 | 78 | 254 | 0.9 | 1.7 | 0.00 | 0.00 | 0.00 | 69 | 1016.6 |
| 20260507005912 | 78 | 261 | 0.0 | 1.7 | 0.00 | 0.00 | 0.00 | 69 | 1016.6 |
| 20260507005409 | 79 | 114 | 1.7 | 2.6 | 0.00 | 0.00 | 0.00 | 68 | 1016.4 |
| 20260507004906 | 79 | 110 | 1.7 | 5.2 | 0.00 | 0.00 | 0.00 | 67 | 1016.2 |
| 20260507004403 | 79 | 81 | 1.7 | 4.3 | 0.00 | 0.00 | 0.00 | 67 | 1016.6 |
| 20260507003900 | 79 | 116 | 3.5 | 3.5 | 0.00 | 0.00 | 0.00 | 67 | 1016.4 |
| 20260507003355 | 79 | 129 | 1.7 | 4.3 | 0.00 | 0.00 | 0.00 | 67 | 1016.3 |
| 20260507002851 | 80 | 124 | 2.6 | 5.2 | 0.00 | 0.00 | 0.00 | 66 | 1016.1 |
| 20260507002347 | 80 | 113 | 0.0 | 3.5 | 0.00 | 0.00 | 0.00 | 66 | 1016.2 |
| 20260507001844 | 80 | 160 | 0.9 | 4.3 | 0.00 | 0.00 | 0.00 | 66 | 1015.9 |
| 20260507001341 | 80 | 139 | 1.7 | 4.3 | 0.00 | 0.00 | 0.00 | 66 | 1015.9 |
| 20260507000837 | 80 | 111 | 2.6 | 3.5 | 0.00 | 0.00 | 0.00 | 66 | 1015.8 |
| 20260507000335 | 81 | 135 | 0.0 | 1.7 | 0.00 | 0.00 | 0.00 | 66 | 1015.5 |
| 20260506235830 | 81 | 142 | 0.0 | 3.5 | 0.00 | 0.00 | 0.00 | 66 | 1015.6 |
| 20260506235326 | 81 | 150 | 1.7 | 2.6 | 0.00 | 0.00 | 0.00 | 65 | 1015.8 |
| 20260506234822 | 82 | 111 | 2.6 | 3.5 | 0.00 | 0.00 | 0.00 | 64 | 1015.4 |
| 20260506234321 | 82 | 78 | 0.0 | 1.7 | 0.00 | 0.00 | 0.00 | 63 | 1015.4 |
| 20260506233818 | 82 | 132 | 1.7 | 3.5 | 0.00 | 0.00 | 0.00 | 63 | 1015.4 |
| 20260506233313 | 83 | 84 | 0.0 | 4.3 | 0.00 | 0.00 | 0.00 | 63 | 1015.6 |
| 20260506232811 | 83 | 165 | 1.7 | 3.5 | 0.00 | 0.00 | 0.00 | 63 | 1015.6 |
| 20260506232306 | 83 | 77 | 4.3 | 6.1 | 0.00 | 0.00 | 0.00 | 63 | 1015.3 |
| 20260506231803 | 84 | 57 | 1.7 | 8.7 | 0.00 | 0.00 | 0.00 | 63 | 1015.5 |
| 20260506231301 | 84 | 135 | 0.0 | 5.2 | 0.00 | 0.00 | 0.00 | 63 | 1015.0 |
| 20260506230758 | 84 | 149 | 2.6 | 6.1 | 0.00 | 0.00 | 0.00 | 63 | 1015.1 |
| 20260506230255 | 86 | 141 | 2.6 | 6.1 | 0.00 | 0.00 | 0.00 | 62 | 1015.3 |
| 20260506225751 | 85 | 144 | 2.6 | 4.3 | 0.00 | 0.00 | 0.00 | 63 | 1015.2 |
| 20260506225248 | 85 | 114 | 2.6 | 5.2 | 0.00 | 0.00 | 0.00 | 64 | 1015.3 |
| 20260506224745 | 85 | 117 | 0.0 | 5.2 | 0.00 | 0.00 | 0.00 | 64 | 1015.3 |
| 20260506224243 | 86 | 117 | 4.3 | 4.3 | 0.00 | 0.00 | 0.00 | 62 | 1015.2 |
| 20260506223738 | 86 | 143 | 4.3 | 5.2 | 0.00 | 0.00 | 0.00 | 61 | 1015.2 |
| 20260506223234 | 88 | 90 | 0.9 | 4.3 | 0.00 | 0.00 | 0.00 | 59 | 1015.5 |
| 20260506222731 | 88 | 110 | 8.7 | 8.7 | 0.00 | 0.00 | 0.00 | 60 | 1015.4 |
| 20260506222226 | 87 | 137 | 5.2 | 6.1 | 0.00 | 0.00 | 0.00 | 62 | 1015.4 |
| 20260506221725 | 87 | 129 | 1.7 | 4.3 | 0.00 | 0.00 | 0.00 | 61 | 1015.5 |
| 20260506221223 | 88 | 167 | 2.6 | 7.0 | 0.00 | 0.00 | 0.00 | 59 | 1015.2 |
| 20260506220720 | 89 | 118 | 3.5 | 8.7 | 0.00 | 0.00 | 0.00 | 59 | 1015.2 |
| 20260506220214 | 88 | 163 | 3.5 | 7.8 | 0.00 | 0.00 | 0.00 | 59 | 1015.2 |
| 20260506215711 | 90 | 124 | 4.3 | 7.8 | 0.00 | 0.00 | 0.00 | 58 | 1015.1 |
| 20260506215207 | 90 | 109 | 1.7 | 5.2 | 0.00 | 0.00 | 0.00 | 58 | 1015.1 |
| 20260506214703 | 89 | 135 | 1.7 | 7.8 | 0.00 | 0.00 | 0.00 | 59 | 1015.3 |
| 20260506214201 | 90 | 127 | 4.3 | 7.8 | 0.00 | 0.00 | 0.00 | 57 | 1015.3 |
| 20260506213659 | 91 | 118 | 2.6 | 6.1 | 0.00 | 0.00 | 0.00 | 57 | 1015.3 |
| 20260506213156 | 92 | 149 | 2.6 | 7.8 | 0.00 | 0.00 | 0.00 | 55 | 1015.1 |
| 20260506212653 | 94 | 138 | 2.6 | 4.3 | 0.00 | 0.00 | 0.00 | 43 | 1015.3 |
| 20260506212148 | 94 | 155 | 2.6 | 6.1 | 0.00 | 0.00 | 0.00 | 43 | 1015.2 |
| 20260506211644 | 93 | 121 | 2.6 | 4.3 | 0.00 | 0.00 | 0.00 | 44 | 1015.3 |
| 20260506211141 | 94 | 132 | 2.6 | 3.5 | 0.00 | 0.00 | 0.00 | 43 | 1015.4 |
| 20260506210638 | 93 | 138 | 2.6 | 6.1 | 0.00 | 0.00 | 0.00 | 44 | 1015.3 |
| 20260506210134 | 93 | 99 | 3.5 | 4.3 | 0.00 | 0.00 | 0.00 | 44 | 1015.6 |
| 20260506205632 | 93 | 199 | 0.0 | 4.3 | 0.00 | 0.00 | 0.00 | 43 | 1015.8 |
| 20260506205126 | 93 | 177 | 2.6 | 3.5 | 0.00 | 0.00 | 0.00 | 44 | 1015.5 |
| 20260506204625 | 94 | 0 | 0.0 | 3.5 | 0.00 | 0.00 | 0.00 | 43 | 1015.8 |
| 20260506204121 | 94 | 180 | 2.6 | 2.6 | 0.00 | 0.00 | 0.00 | 42 | 1015.6 |
| 20260506203619 | 93 | 166 | 1.7 | 5.2 | 0.00 | 0.00 | 0.00 | 44 | 1015.6 |
| 20260506203116 | 92 | 234 | 0.0 | 5.2 | 0.00 | 0.00 | 0.00 | 45 | 1015.8 |
| 20260506202614 | 92 | 320 | 4.3 | 5.2 | 0.00 | 0.00 | 0.00 | 44 | 1015.7 |
| 20260506202110 | 92 | 295 | 2.6 | 3.5 | 0.00 | 0.00 | 0.00 | 44 | 1015.9 |
| 20260506201607 | 93 | 115 | 2.6 | 6.1 | 0.00 | 0.00 | 0.00 | 45 | 1015.9 |
| 20260506201103 | 92 | 116 | 4.3 | 6.1 | 0.00 | 0.00 | 0.00 | 45 | 1015.8 |
| 20260506200600 | 92 | 118 | 3.5 | 5.2 | 0.00 | 0.00 | 0.00 | 46 | 1016.3 |